GSAT-31

Last updated on Thu Nov 21 2024 00:02:44 GMT+0000 (Coordinated Universal Time)

1 44035U 19007B 24325.23105135 .00000126 00000+0 00000+0 0 9996 2 44035 0.0155 259.7128 0006234 354.7213 296.3693 1.00271036 21217
UTC large
Height (km)
Speed (km/s)
/
Latitude / Longitude
Inclination (degrees)
Orbital Period (minutes)
Azimuth
Elevation
Range (km)
Doppler Factor

Next 0 passes for location: London (51.5072 / 0.1276)

Sorry there are no passes over London.